LNI880 WAPP-WAPF

Flight info

Callsign LNI880
Flight time 0h 55m
Altitude 31000
Route GOMBY W54 FOLOT DCT NOMUR
Aircraft B738/M-SDE2E3FGHIRWXY/LB1

Departure

Time 2026-04-18 01:45
Airport Pattimura International Airport (WAPP)

Arrival

Time 2026-04-18 02:41
Airport Karel Sadsuitubun Airport (WAPF)
Time Latitude Longitude Altitude Speed Heading
2026-04-18 01:28 -3.70627 128.08891 36 ft 0 kts
2026-04-18 01:34 -3.70642 128.08891 36 ft 2 kts
2026-04-18 01:35 -3.70658 128.08891 36 ft 2 kts
2026-04-18 01:35 -3.70675 128.08890 36 ft 2 kts 355°
2026-04-18 01:35 -3.70690 128.08894 36 ft 2 kts 307°
2026-04-18 01:35 -3.70695 128.08903 36 ft 1 kts 268°
2026-04-18 01:36 -3.70695 128.08905 34 ft 0 kts 268°
2026-04-18 01:38 -3.70695 128.08900 36 ft 2 kts 268°
2026-04-18 01:39 -3.70696 128.08872 36 ft 6 kts 268°
2026-04-18 01:39 -3.70697 128.08823 36 ft 8 kts 270°
2026-04-18 01:39 -3.70725 128.08769 36 ft 11 kts 202°
2026-04-18 01:39 -3.70809 128.08765 36 ft 14 kts 179°
2026-04-18 01:40 -3.70910 128.08765 36 ft 14 kts 180°
2026-04-18 01:40 -3.71001 128.08775 35 ft 14 kts 151°
2026-04-18 01:40 -3.71043 128.08814 34 ft 10 kts 132°
2026-04-18 01:40 -3.71108 128.08860 33 ft 13 kts 178°
2026-04-18 01:41 -3.71183 128.08810 34 ft 14 kts 224°
2026-04-18 01:41 -3.71255 128.08739 35 ft 15 kts 225°
2026-04-18 01:41 -3.71336 128.08658 35 ft 17 kts 226°
2026-04-18 01:41 -3.71424 128.08569 36 ft 18 kts 224°
2026-04-18 01:42 -3.71518 128.08476 37 ft 20 kts 225°
2026-04-18 01:42 -3.71621 128.08374 36 ft 22 kts 224°
2026-04-18 01:42 -3.71708 128.08287 36 ft 17 kts 225°
2026-04-18 01:42 -3.71761 128.08207 35 ft 12 kts 253°
2026-04-18 01:43 -3.71794 128.08162 35 ft 0 kts 197°
2026-04-18 01:43 -3.71797 128.08163 35 ft 1 kts 164°
2026-04-18 01:43 -3.71805 128.08173 35 ft 2 kts 122°
2026-04-18 01:43 -3.71803 128.08190 35 ft 3 kts 62°
2026-04-18 01:44 -3.71787 128.08209 35 ft 4 kts 46°
2026-04-18 01:44 -3.71764 128.08231 36 ft 5 kts 44°
2026-04-18 01:44 -3.71719 128.08277 36 ft 15 kts 46°
2026-04-18 01:44 -3.71438 128.08558 36 ft 101 kts 45°
2026-04-18 01:45 -3.70750 128.09239 49 ft 174 kts 45°
2026-04-18 01:45 -3.69831 128.10123 860 ft 183 kts 46°
2026-04-18 01:45 -3.69046 128.11074 2120 ft 172 kts 57°
2026-04-18 01:45 -3.68465 128.12159 2910 ft 185 kts 65°
2026-04-18 01:46 -3.68084 128.13485 3265 ft 214 kts 89°
2026-04-18 01:46 -3.68389 128.14975 3718 ft 224 kts 104°
2026-04-18 01:46 -3.68438 128.16547 4292 ft 230 kts 78°
2026-04-18 01:46 -3.67867 128.18041 4971 ft 232 kts 59°
2026-04-18 01:47 -3.66910 128.19340 5681 ft 234 kts 51°
2026-04-18 01:47 -3.66227 128.20868 5984 ft 255 kts 85°
2026-04-18 01:47 -3.66607 128.22662 6345 ft 276 kts 119°
2026-04-18 01:47 -3.67659 128.24290 7063 ft 281 kts 124°
2026-04-18 01:48 -3.68735 128.25940 7865 ft 284 kts 122°
2026-04-18 01:48 -3.69752 128.27649 8690 ft 287 kts 119°
2026-04-18 01:48 -3.70697 128.29397 9468 ft 291 kts 117°
2026-04-18 01:48 -3.71606 128.31222 10219 ft 295 kts 115°
2026-04-18 01:49 -3.72504 128.33142 10511 ft 317 kts 114°
2026-04-18 01:49 -3.73435 128.35234 10701 ft 340 kts 113°
2026-04-18 01:49 -3.74393 128.37471 10981 ft 356 kts 112°
2026-04-18 01:49 -3.75353 128.39773 11560 ft 361 kts 112°
2026-04-18 01:50 -3.76307 128.42103 12252 ft 362 kts 112°
2026-04-18 01:50 -3.77256 128.44447 12926 ft 365 kts 112°
2026-04-18 01:50 -3.78206 128.46810 13565 ft 367 kts 111°
2026-04-18 01:50 -3.79161 128.49196 14135 ft 371 kts 111°
2026-04-18 01:51 -3.80124 128.51606 14636 ft 375 kts 111°
2026-04-18 01:51 -3.81098 128.54048 15137 ft 379 kts 111°
2026-04-18 01:51 -3.82080 128.56512 15637 ft 383 kts 111°
2026-04-18 01:51 -3.83074 128.59006 16131 ft 387 kts 111°
2026-04-18 01:52 -3.84078 128.61524 16615 ft 391 kts 111°
2026-04-18 01:52 -3.85091 128.64065 17094 ft 395 kts 111°
2026-04-18 01:52 -3.86114 128.66632 17570 ft 399 kts 112°
2026-04-18 01:52 -3.87146 128.69221 18039 ft 402 kts 112°
2026-04-18 01:53 -3.88187 128.71834 18442 ft 406 kts 112°
2026-04-18 01:53 -3.89238 128.74473 18845 ft 409 kts 112°
2026-04-18 01:53 -3.90295 128.77125 19252 ft 411 kts 112°
2026-04-18 01:54 -3.92427 128.82479 20070 ft 416 kts 112°
2026-04-18 01:54 -3.93502 128.85180 20461 ft 419 kts 112°
2026-04-18 01:54 -3.94585 128.87898 20846 ft 422 kts 112°
2026-04-18 01:54 -3.95674 128.90634 21218 ft 424 kts 112°
2026-04-18 01:55 -3.96770 128.93387 21603 ft 427 kts 112°
2026-04-18 01:55 -3.97872 128.96155 21976 ft 429 kts 112°
2026-04-18 01:55 -3.98981 128.98942 22344 ft 432 kts 112°
2026-04-18 01:55 -4.00095 129.01740 22707 ft 434 kts 112°
2026-04-18 01:56 -4.01216 129.04558 23054 ft 436 kts 112°
2026-04-18 01:56 -4.02342 129.07389 23412 ft 439 kts 112°
2026-04-18 01:56 -4.03474 129.10233 23714 ft 441 kts 112°
2026-04-18 01:56 -4.04610 129.13088 24021 ft 442 kts 112°
2026-04-18 01:57 -4.05748 129.15951 24327 ft 443 kts 112°
2026-04-18 01:57 -4.06889 129.18821 24637 ft 444 kts 112°
2026-04-18 01:57 -4.08033 129.21697 24921 ft 445 kts 112°
2026-04-18 01:57 -4.09181 129.24585 25209 ft 447 kts 112°
2026-04-18 01:58 -4.10333 129.27484 25480 ft 449 kts 112°
2026-04-18 01:58 -4.11488 129.30389 25756 ft 450 kts 112°
2026-04-18 01:58 -4.12649 129.33310 26029 ft 452 kts 112°
2026-04-18 01:58 -4.13811 129.36234 26312 ft 453 kts 112°
2026-04-18 01:59 -4.14961 129.39129 26567 ft 454 kts 112°
2026-04-18 01:59 -4.16131 129.42072 26816 ft 456 kts 112°
2026-04-18 01:59 -4.17304 129.45025 27070 ft 457 kts 112°
2026-04-18 01:59 -4.18481 129.47988 27324 ft 458 kts 112°
2026-04-18 02:00 -4.19661 129.50959 27594 ft 459 kts 112°
2026-04-18 02:00 -4.20839 129.53928 27951 ft 457 kts 112°
2026-04-18 02:00 -4.22010 129.56878 28374 ft 455 kts 112°
2026-04-18 02:00 -4.23175 129.59813 28793 ft 452 kts 112°
2026-04-18 02:01 -4.24336 129.62737 29178 ft 451 kts 112°
2026-04-18 02:01 -4.25491 129.65650 29573 ft 449 kts 112°
2026-04-18 02:01 -4.26642 129.68550 29988 ft 447 kts 112°
2026-04-18 02:01 -4.27788 129.71435 30336 ft 445 kts 112°
2026-04-18 02:02 -4.29005 129.74282 30681 ft 443 kts 114°
2026-04-18 02:02 -4.30292 129.77086 30911 ft 444 kts 115°
2026-04-18 02:02 -4.31614 129.79887 30910 ft 444 kts 115°
2026-04-18 02:03 -4.34256 129.85454 30911 ft 441 kts 115°
2026-04-18 02:03 -4.36861 129.91002 30915 ft 439 kts 115°
2026-04-18 02:04 -4.39426 129.96509 30913 ft 439 kts 115°
2026-04-18 02:04 -4.41999 130.02051 30921 ft 438 kts 115°
2026-04-18 02:05 -4.44568 130.07587 30917 ft 438 kts 115°
2026-04-18 02:05 -4.47139 130.13127 30914 ft 438 kts 115°
2026-04-18 02:06 -4.49709 130.18666 30917 ft 439 kts 115°
2026-04-18 02:06 -4.52283 130.24214 30909 ft 439 kts 115°
2026-04-18 02:07 -4.54858 130.29766 30911 ft 439 kts 115°
2026-04-18 02:07 -4.57435 130.35323 30912 ft 440 kts 115°
2026-04-18 02:08 -4.60016 130.40889 30909 ft 441 kts 115°
2026-04-18 02:08 -4.62598 130.46461 30914 ft 441 kts 115°
2026-04-18 02:09 -4.65184 130.52041 30913 ft 441 kts 115°
2026-04-18 02:09 -4.67770 130.57624 30912 ft 442 kts 115°
2026-04-18 02:10 -4.70357 130.63209 30909 ft 442 kts 115°
2026-04-18 02:10 -4.72944 130.68797 30910 ft 442 kts 115°
2026-04-18 02:11 -4.75531 130.74385 30907 ft 442 kts 115°
2026-04-18 02:11 -4.78116 130.79970 30909 ft 442 kts 115°
2026-04-18 02:12 -4.80699 130.85552 30910 ft 441 kts 115°
2026-04-18 02:12 -4.83280 130.91132 30911 ft 441 kts 115°
2026-04-18 02:13 -4.85862 130.96714 30912 ft 441 kts 114°
2026-04-18 02:13 -4.88423 131.02253 30911 ft 441 kts 114°
2026-04-18 02:14 -4.91000 131.07829 30914 ft 441 kts 114°
2026-04-18 02:14 -4.93578 131.13407 30910 ft 441 kts 114°
2026-04-18 02:15 -4.96155 131.18986 30903 ft 438 kts 114°
2026-04-18 02:15 -4.98686 131.24465 30900 ft 430 kts 114°
2026-04-18 02:16 -5.01201 131.29912 30809 ft 432 kts 114°
2026-04-18 02:16 -5.02461 131.32643 30435 ft 429 kts 114°
2026-04-18 02:16 -5.03709 131.35345 30015 ft 425 kts 114°
2026-04-18 02:16 -5.04946 131.38025 29516 ft 422 kts 114°
2026-04-18 02:17 -5.06172 131.40682 29027 ft 418 kts 114°
2026-04-18 02:17 -5.07387 131.43316 28551 ft 415 kts 114°
2026-04-18 02:17 -5.08594 131.45931 28077 ft 411 kts 114°
2026-04-18 02:17 -5.09791 131.48527 27620 ft 408 kts 114°
2026-04-18 02:18 -5.10978 131.51102 27158 ft 405 kts 114°
2026-04-18 02:18 -5.12158 131.53661 26701 ft 403 kts 114°
2026-04-18 02:18 -5.13331 131.56203 26242 ft 401 kts 114°
2026-04-18 02:18 -5.14512 131.58757 25512 ft 406 kts 114°
2026-04-18 02:19 -5.15705 131.61326 24980 ft 407 kts 114°
2026-04-18 02:19 -5.16896 131.63892 24495 ft 405 kts 114°
2026-04-18 02:19 -5.18085 131.66451 24024 ft 404 kts 114°
2026-04-18 02:19 -5.19267 131.68998 23565 ft 402 kts 114°
2026-04-18 02:20 -5.20445 131.71537 23046 ft 401 kts 114°
2026-04-18 02:20 -5.21615 131.74060 22571 ft 397 kts 114°
2026-04-18 02:20 -5.22776 131.76565 22114 ft 394 kts 114°
2026-04-18 02:20 -5.23926 131.79044 21667 ft 390 kts 114°
2026-04-18 02:21 -5.25066 131.81504 21221 ft 387 kts 114°
2026-04-18 02:21 -5.26196 131.83944 20791 ft 384 kts 114°
2026-04-18 02:21 -5.27317 131.86363 20360 ft 381 kts 114°
2026-04-18 02:21 -5.28431 131.88767 19936 ft 379 kts 114°
2026-04-18 02:22 -5.29537 131.91156 19491 ft 377 kts 114°
2026-04-18 02:22 -5.30623 131.93500 19077 ft 374 kts 114°
2026-04-18 02:22 -5.31718 131.95865 18643 ft 373 kts 114°
2026-04-18 02:22 -5.32807 131.98218 18215 ft 371 kts 114°
2026-04-18 02:23 -5.33892 132.00561 17751 ft 369 kts 114°
2026-04-18 02:23 -5.34983 132.02918 17281 ft 366 kts 114°
2026-04-18 02:23 -5.36051 132.05226 16865 ft 363 kts 114°
2026-04-18 02:23 -5.37111 132.07515 16449 ft 360 kts 114°
2026-04-18 02:24 -5.38148 132.09756 16043 ft 357 kts 114°
2026-04-18 02:24 -5.39190 132.12009 15631 ft 355 kts 114°
2026-04-18 02:24 -5.40225 132.14246 15228 ft 352 kts 114°
2026-04-18 02:24 -5.41253 132.16469 14826 ft 350 kts 114°
2026-04-18 02:25 -5.42275 132.18678 14410 ft 349 kts 114°
2026-04-18 02:25 -5.43294 132.20881 14009 ft 347 kts 114°
2026-04-18 02:25 -5.44307 132.23071 13575 ft 345 kts 114°
2026-04-18 02:25 -5.45315 132.25251 13154 ft 343 kts 114°
2026-04-18 02:26 -5.46317 132.27419 12740 ft 341 kts 114°
2026-04-18 02:26 -5.47311 132.29569 12338 ft 338 kts 114°
2026-04-18 02:26 -5.48296 132.31702 11944 ft 336 kts 114°
2026-04-18 02:26 -5.49273 132.33814 11555 ft 333 kts 113°
2026-04-18 02:27 -5.50245 132.35919 11165 ft 330 kts 113°
2026-04-18 02:27 -5.51209 132.38004 10795 ft 328 kts 113°
2026-04-18 02:27 -5.52161 132.40077 10479 ft 324 kts 112°
2026-04-18 02:27 -5.53075 132.42106 10291 ft 315 kts 112°
2026-04-18 02:28 -5.53960 132.44080 10162 ft 306 kts 112°
2026-04-18 02:28 -5.54819 132.45998 10025 ft 295 kts 112°
2026-04-18 02:28 -5.55640 132.47830 9871 ft 282 kts 112°
2026-04-18 02:28 -5.56168 132.49007 9673 ft 278 kts 112°
2026-04-18 02:29 -5.56950 132.50754 9375 ft 271 kts 112°
2026-04-18 02:29 -5.57967 132.53022 9002 ft 262 kts 112°
2026-04-18 02:29 -5.58458 132.54117 8818 ft 258 kts 112°
2026-04-18 02:29 -5.59190 132.55750 8557 ft 257 kts 112°
2026-04-18 02:30 -5.59933 132.57408 8299 ft 264 kts 112°
2026-04-18 02:30 -5.60699 132.59110 8031 ft 271 kts 114°
2026-04-18 02:30 -5.61839 132.60637 7716 ft 278 kts 139°
2026-04-18 02:30 -5.63396 132.61772 7453 ft 277 kts 144°
2026-04-18 02:31 -5.64983 132.62862 7152 ft 276 kts 144°
2026-04-18 02:31 -5.66571 132.63946 6871 ft 276 kts 144°
2026-04-18 02:31 -5.68150 132.65029 6583 ft 272 kts 144°
2026-04-18 02:31 -5.69673 132.66077 6502 ft 259 kts 144°
2026-04-18 02:32 -5.71122 132.67078 6405 ft 247 kts 144°
2026-04-18 02:32 -5.72498 132.68030 6327 ft 235 kts 144°
2026-04-18 02:32 -5.73834 132.68957 6053 ft 232 kts 144°
2026-04-18 02:32 -5.75157 132.69877 5744 ft 232 kts 144°
2026-04-18 02:33 -5.76485 132.70795 5475 ft 232 kts 144°
2026-04-18 02:33 -5.77802 132.71713 5239 ft 229 kts 144°
2026-04-18 02:33 -5.79103 132.72620 5026 ft 223 kts 144°
2026-04-18 02:33 -5.80359 132.73494 4815 ft 218 kts 144°
2026-04-18 02:34 -5.81605 132.74361 4499 ft 217 kts 144°
2026-04-18 02:34 -5.82835 132.75218 4326 ft 213 kts 144°
2026-04-18 02:34 -5.84045 132.76057 4150 ft 209 kts 144°
2026-04-18 02:34 -5.85219 132.76878 3864 ft 209 kts 144°
2026-04-18 02:35 -5.86405 132.77702 3658 ft 205 kts 144°
2026-04-18 02:35 -5.87576 132.78517 3332 ft 206 kts 144°
2026-04-18 02:35 -5.88728 132.79320 3201 ft 199 kts 144°
2026-04-18 02:35 -5.89712 132.80282 2828 ft 199 kts 114°
2026-04-18 02:36 -5.89903 132.81620 2483 ft 195 kts 75°
2026-04-18 02:36 -5.89255 132.82746 2299 ft 181 kts 40°
2026-04-18 02:36 -5.88210 132.83372 2074 ft 173 kts 23°
2026-04-18 02:36 -5.87115 132.83846 1734 ft 170 kts 22°
2026-04-18 02:37 -5.86081 132.84283 1636 ft 152 kts 22°
2026-04-18 02:37 -5.85109 132.84583 1408 ft 145 kts 356°
2026-04-18 02:37 -5.84217 132.84175 1430 ft 141 kts 327°
2026-04-18 02:37 -5.83401 132.83654 1395 ft 138 kts 323°
2026-04-18 02:38 -5.82672 132.83006 1404 ft 142 kts 319°
2026-04-18 02:38 -5.81974 132.82318 1395 ft 140 kts 316°
2026-04-18 02:38 -5.81296 132.81617 1360 ft 142 kts 315°
2026-04-18 02:38 -5.80608 132.80895 1176 ft 142 kts 315°
2026-04-18 02:39 -5.79942 132.80180 998 ft 138 kts 315°
2026-04-18 02:39 -5.79289 132.79457 846 ft 141 kts 311°
2026-04-18 02:39 -5.78637 132.78713 662 ft 144 kts 316°
2026-04-18 02:39 -5.77917 132.78011 415 ft 144 kts 316°
2026-04-18 02:40 -5.77252 132.77295 294 ft 137 kts 314°
2026-04-18 02:40 -5.76585 132.76594 128 ft 140 kts 315°
2026-04-18 02:40 -5.75960 132.75932 69 ft 114 kts 313°
2026-04-18 02:40 -5.75519 132.75457 76 ft 72 kts 313°
2026-04-18 02:41 -5.75326 132.75250 73 ft 25 kts 313°
2026-04-18 02:41 -5.75231 132.75151 67 ft 16 kts 314°
2026-04-18 02:41 -5.75163 132.75091 68 ft 8 kts 328°
2026-04-18 02:41 -5.75138 132.75067 68 ft 3 kts 277°
2026-04-18 02:42 -5.75143 132.75063 71 ft 1 kts 216°
2026-04-18 02:42 -5.75150 132.75064 71 ft 2 kts 172°
2026-04-18 02:42 -5.75171 132.75080 68 ft 6 kts 133°
2026-04-18 02:42 -5.75205 132.75121 65 ft 9 kts 133°
2026-04-18 02:43 -5.75255 132.75173 67 ft 11 kts 133°
2026-04-18 02:43 -5.75312 132.75235 68 ft 13 kts 131°
2026-04-18 02:43 -5.75380 132.75309 69 ft 16 kts 133°
2026-04-18 02:43 -5.75461 132.75394 69 ft 18 kts 133°
2026-04-18 02:44 -5.75545 132.75482 73 ft 18 kts 133°
2026-04-18 02:44 -5.75633 132.75578 67 ft 17 kts 133°
2026-04-18 02:44 -5.75720 132.75670 71 ft 15 kts 133°
2026-04-18 02:44 -5.75781 132.75736 73 ft 10 kts 133°
2026-04-18 02:45 -5.75777 132.75780 72 ft 4 kts 47°
2026-04-18 02:45 -5.75749 132.75806 76 ft 7 kts 43°
2026-04-18 02:45 -5.75714 132.75851 68 ft 8 kts 77°
2026-04-18 02:45 -5.75737 132.75893 69 ft 1 kts 131°
2026-04-18 02:46 -5.75755 132.75913 69 ft 6 kts 133°
2026-04-18 02:46 -5.75778 132.75938 71 ft 5 kts 133°
2026-04-18 02:46 -5.75780 132.75952 71 ft 3 kts 77°
2026-04-18 02:46 -5.75769 132.75971 71 ft 2 kts 48°
2026-04-18 02:47 -5.75758 132.75982 68 ft 0 kts 43°
2026-04-18 02:47 -5.75751 132.75987 61 ft 1 kts 43°
2026-04-18 02:47 -5.75751 132.75988 61 ft 0 kts 43°